Weather reports worldwide

Advertisment
Passo Rolle, Italy (16021): temperature & dewpoint: 15.01.2018 04:00:00 - 21.01.2018 04:00:00 (CET)Passo Rolle, Italy (16021): wind speed: 15.01.2018 04:00:00 - 21.01.2018 04:00:00 (CET)Passo Rolle, Italy (16021): wind direction: 15.01.2018 04:00:00 - 21.01.2018 04:00:00 (CET)Passo Rolle, Italy (16021): visibility: 15.01.2018 04:00:00 - 21.01.2018 04:00:00 (CET)
Date & Time tt [°C] td [°C] ff [km/h] ff [kn] dd vv [km]
21.01.2018 04:00:00 - - - - - -
21.01.2018 03:00:00 - - - - - -
21.01.2018 02:00:00 - - - - - -
21.01.2018 01:00:00 -7,0 -7,4 5 3 W 0,6
21.01.2018 00:00:00 - - - - - -
20.01.2018 23:00:00 - - - - - -
20.01.2018 22:00:00 -6,4 -10,3 15 8 SE 8
20.01.2018 21:00:00 - - - - - -
20.01.2018 20:00:00 - - - - - -
20.01.2018 19:00:00 -6,4 -9,6 16 9 S 10
20.01.2018 18:00:00 - - - - - -
20.01.2018 17:00:00 -6,0 -9,0 24 13 S 10
20.01.2018 16:00:00 -5,2 -12,6 18 10 SSW 80
20.01.2018 15:00:00 -5,0 -15,0 22 12 S 10
20.01.2018 14:00:00 - - - - - -
20.01.2018 13:00:00 -5,0 -17,1 8 4 S 80
20.01.2018 12:00:00 - - - - - -
20.01.2018 11:00:00 - - - - - -
20.01.2018 10:00:00 -6,8 -16,0 4 2 NE 80
20.01.2018 09:00:00 -8,0 -14,0 5 3 NNE 10
20.01.2018 08:00:00 - - - - - -
20.01.2018 07:00:00 -8,0 -15,0 13 7 N 20
20.01.2018 06:00:00 - - - - - -
20.01.2018 05:00:00 - - - - - -
20.01.2018 04:00:00 -7,2 -16,6 9 5 NNE 10
20.01.2018 03:00:00 - - - - - -
20.01.2018 02:00:00 - - - - - -
20.01.2018 01:00:00 -8,2 -17,5 5 3 E 10
20.01.2018 00:00:00 - - - - - -
19.01.2018 23:00:00 - - - - - -
19.01.2018 22:00:00 -6,8 -15,0 13 7 NE 10
19.01.2018 21:00:00 - - - - - -
19.01.2018 20:00:00 - - - - - -
19.01.2018 19:00:00 -6,6 -14,8 11 6 N 10
19.01.2018 18:00:00 -6,0 -14,0 11 6 NNW 10
19.01.2018 17:00:00 -5,0 -14,0 22 12 NNW 10
19.01.2018 16:00:00 -4,6 -12,0 18 10 NNW 50
19.01.2018 15:00:00 -4,0 -12,0 29 16 NNW 10
19.01.2018 14:00:00 -3,0 -6,0 13 7 NNW 10
19.01.2018 13:00:00 -3,2 -5,2 11 6 N 20
19.01.2018 12:00:00 - - - - - -
19.01.2018 11:00:00 - - - - - -
19.01.2018 10:00:00 -1,8 -7,9 9 5 NNE 80
19.01.2018 09:00:00 - - - - - -
19.01.2018 08:00:00 -4,0 -9,0 4 2 E 10
19.01.2018 07:00:00 -4,0 -8,8 4 2 N 80
19.01.2018 06:00:00 - - - - - -
19.01.2018 05:00:00 - - - - - -
19.01.2018 04:00:00 -4,4 -8,7 4 2 N 10
19.01.2018 03:00:00 - - - - - -
19.01.2018 02:00:00 - - - - - -
19.01.2018 01:00:00 -5,0 -10,2 9 5 W 10
19.01.2018 00:00:00 - - - - - -
18.01.2018 23:00:00 - - - - - -
18.01.2018 22:00:00 -4,4 -10,2 8 4 NNE 10
18.01.2018 21:00:00 - - - - - -
18.01.2018 20:00:00 - - - - - -
18.01.2018 19:00:00 -6,0 -12,9 9 5 N 10
18.01.2018 18:00:00 - - - - - -
18.01.2018 17:00:00 - - - - - -
18.01.2018 16:00:00 -5,0 -14,6 4 2 N 80
18.01.2018 15:00:00 -5,0 -14,0 9 5 NNW 10
18.01.2018 14:00:00 -5,0 -14,0 8 4 NW 10
18.01.2018 13:00:00 -4,2 -15,2 11 6 WSW 80
18.01.2018 12:00:00 -5,0 -16,0 8 4 SSW 10
18.01.2018 11:00:00 -6,0 -17,0 11 6 SSW 10
18.01.2018 10:00:00 -6,8 -13,1 24 13 SE 71
18.01.2018 09:00:00 -7,0 -13,0 13 7 SSE 10
18.01.2018 08:00:00 -7,0 -14,0 21 11 NE 10
18.01.2018 07:00:00 -8,2 -13,8 22 12 NNE 20
18.01.2018 06:00:00 -9,0 -14,0 5 3 NNW 10
18.01.2018 05:00:00 -9,0 -13,0 5 3 NNW 10
18.01.2018 04:00:00 -8,8 -12,4 8 4 NNW 10
18.01.2018 03:00:00 - - - - - -
18.01.2018 02:00:00 - - - - - -
18.01.2018 01:00:00 -8,8 -11,9 8 4 NNE 10
18.01.2018 00:00:00 - - - - - -
17.01.2018 23:00:00 - - - - - -
17.01.2018 22:00:00 -8,6 -12,7 22 12 N 10
17.01.2018 21:00:00 - - - - - -
17.01.2018 20:00:00 - - - - - -
17.01.2018 19:00:00 -8,8 -11,2 18 10 NNW 10
17.01.2018 18:00:00 -9,0 -10,0 22 12 NW 10
17.01.2018 17:00:00 -8,0 -11,0 21 11 NW 10
17.01.2018 16:00:00 -7,2 -10,5 21 11 NW 30
17.01.2018 15:00:00 -7,0 -15,0 16 9 NW 10
17.01.2018 14:00:00 -7,0 -13,0 35 19 N 10
17.01.2018 13:00:00 -5,8 -16,4 52 28 NW 10
17.01.2018 12:00:00 -6,0 -15,0 29 16 NW 10
17.01.2018 11:00:00 -6,0 -14,0 42 23 NW 10
17.01.2018 10:00:00 -6,0 -9,7 29 16 NW 30
17.01.2018 09:00:00 -6,0 -9,0 9 5 NW 10
17.01.2018 08:00:00 -5,0 -10,0 22 12 NW 10
17.01.2018 07:00:00 -4,8 -8,2 11 6 N 10
17.01.2018 06:00:00 -4,0 -5,0 8 4 NW 10
17.01.2018 05:00:00 -4,0 -8,0 5 3 WNW 10
17.01.2018 04:00:00 -3,0 -6,8 5 3 WNW 10
17.01.2018 03:00:00 - - - - - -
17.01.2018 02:00:00 - - - - - -
17.01.2018 01:00:00 -3,6 -10,0 11 6 NNW 10
17.01.2018 00:00:00 - - - - - -
16.01.2018 23:00:00 - - - - - -
16.01.2018 22:00:00 -2,8 -9,7 9 5 WSW 10
16.01.2018 21:00:00 - - - - - -
16.01.2018 20:00:00 - - - - - -
16.01.2018 19:00:00 -4,6 -7,5 8 4 NNE 10
16.01.2018 18:00:00 -5,0 -7,0 4 2 NW 10
16.01.2018 17:00:00 -4,0 -5,0 16 9 NE 10
16.01.2018 16:00:00 -5,2 -5,7 5 3 NNE 0,3
16.01.2018 15:00:00 -4,0 -6,0 15 8 W 0,1
16.01.2018 14:00:00 -4,0 -6,0 4 2 NW 10
16.01.2018 13:00:00 -4,0 -5,7 13 7 WNW 0,6
16.01.2018 12:00:00 -4,0 -8,0 4 2 NNW 10
16.01.2018 11:00:00 -5,0 -8,0 5 3 NW 10
16.01.2018 10:00:00 -4,8 -6,6 5 3 N 20
16.01.2018 09:00:00 -6,0 -7,0 4 2 WNW 10
16.01.2018 08:00:00 -6,0 -8,0 5 3 NW 10
16.01.2018 07:00:00 -5,6 -7,6 2 1 NNE 10
16.01.2018 06:00:00 -6,0 -8,0 8 4 SW 0,8
16.01.2018 05:00:00 -6,0 -7,0 8 4 SSW 0,3
16.01.2018 04:00:00 -5,4 -6,8 4 2 S 0,3
16.01.2018 03:00:00 - - - - - -
16.01.2018 02:00:00 - - - - - -
16.01.2018 01:00:00 -5,8 -7,2 16 9 SSE 0,2
16.01.2018 00:00:00 - - - - - -
15.01.2018 23:00:00 - - - - - -
15.01.2018 22:00:00 -6,8 -8,2 18 10 SSE 0,1
15.01.2018 21:00:00 - - - - - -
15.01.2018 20:00:00 - - - - - -
15.01.2018 19:00:00 -6,8 -7,5 4 2 W 0,1
15.01.2018 18:00:00 -6,0 -7,0 9 5 SSE 0,1
15.01.2018 17:00:00 -6,0 -8,0 2 1 SSW 0,3
15.01.2018 16:00:00 -5,4 -8,1 8 4 SSE 30
15.01.2018 15:00:00 -5,0 -8,0 8 4 SE 10
15.01.2018 14:00:00 -5,0 -9,0 4 2 SE 10
15.01.2018 13:00:00 -6,0 -8,4 0 0 WNW 72
15.01.2018 12:00:00 -7,0 -9,0 5 3 W 10
15.01.2018 11:00:00 -8,0 -9,0 8 4 W 10
15.01.2018 10:00:00 -8,8 -9,7 0 0 N 0,1
15.01.2018 09:00:00 -9,0 -10,0 5 3 WNW 0,1
15.01.2018 08:00:00 -9,0 -10,0 8 4 WNW 0,1
15.01.2018 07:00:00 -9,0 -9,7 11 6 NW 0,1
15.01.2018 06:00:00 -9,0 -9,0 9 5 NNW 0,1
15.01.2018 05:00:00 -9,0 -10,0 13 7 N 0,1
15.01.2018 04:00:00 -9,0 -10,6 11 6 NNW 0,1

tt = temperature
td = dewpoint
ff = wind speed
dd = wind direction
vv = visibility

Next stations